GEFSNGP_con_prob3kmehi_180.txt.gz
EHI
0 0 0 0 0 0 0 0 0 0 1 4 7 15 25 34 36 36 36 36 36 39 39 36 34 32 29 28 27 24 18 16 15 12 9 7 8 9 9 10 11 14 18 19
0 0 0 0 0 0 0 0 0 0 1 5 11 19 28 35 38 38 38 38 37 39 38 35 32 29 26 25 24 21 17 15 14 11 8 7 7 8 9 10 12 15 19 21
0 0 0 0 0 0 0 0 0 0 2 6 13 20 27 33 39 41 40 39 39 37 35 32 29 26 22 21 21 19 16 15 13 11 8 8 8 9 10 11 13 15 18 19
0 0 0 0 0 0 0 0 0 1 3 8 14 18 22 28 38 43 43 43 41 37 33 28 25 23 20 18 18 18 16 14 13 12 11 10 9 10 11 12 13 13 13 12
0 0 0 0 0 0 0 0 0 2 6 11 16 16 18 25 36 44 47 46 43 37 32 27 23 20 18 15 14 14 13 12 12 12 12 10 9 9 10 10 9 8 6 6
0 0 0 0 0 0 0 0 1 4 11 17 17 17 21 30 39 45 47 46 43 37 32 27 21 17 15 12 9 9 10 10 9 10 10 9 8 8 7 5 3 2 2 2
0 0 0 0 0 0 1 3 4 8 17 23 23 27 33 39 42 42 42 43 40 35 30 24 19 15 13 11 8 7 7 7 7 8 8 7 7 7 4 1 0 0 0 0
0 0 1 3 4 5 7 9 9 11 20 29 34 38 41 41 40 36 36 38 37 32 26 22 18 16 13 10 8 6 7 9 9 9 7 6 5 4 2 1 0 0 0 0
3 3 5 7 8 9 12 14 13 15 24 34 39 39 39 39 35 31 30 31 30 27 23 20 18 16 14 10 7 7 8 10 11 9 6 4 3 3 1 0 0 0 0 0
8 7 7 8 8 10 13 15 16 20 26 32 34 33 32 33 31 27 26 24 23 22 20 18 16 15 13 10 8 7 8 9 8 7 4 2 2 2 1 0 0 0 0 0
10 10 10 10 10 11 13 16 18 20 22 25 27 27 26 25 23 23 23 21 19 18 16 14 12 11 9 9 9 8 7 6 5 4 2 1 1 1 0 0 0 0 0 0
10 11 13 14 13 12 12 14 16 17 19 21 21 22 21 18 15 16 17 16 15 13 9 7 7 6 5 6 8 7 6 5 4 2 1 0 0 0 0 0 0 0 0 0
12 10 12 14 13 10 8 10 13 15 17 17 16 17 16 13 11 10 9 7 8 6 3 2 2 2 2 3 4 5 4 3 2 1 0 0 0 0 0 0 0 0 0 0
10 9 8 10 10 8 7 8 10 11 11 10 10 10 9 9 8 6 3 2 2 2 1 0 0 1 2 1 1 1 1 1 1 0 0 0 0 0 0 0 0 0 0 0
6 6 7 6 6 5 6 7 7 6 5 4 4 4 4 4 3 2 1 0 0 0 0 0 0 2 2 1 0 0 0 0 0 0 0 0 0 0 0 0 0 0 0 0
3 4 4 4 2 3 4 5 4 3 2 2 1 1 1 1 1 0 0 0 0 0 0 0 0 1 2 1 0 0 0 0 0 0 0 0 0 0 0 0 0 0 0 0
1 1 1 1 1 1 2 2 2 1 1 1 0 0 0 0 0 0 0 0 0 0 1 1 0 0 1 1 0 0 0 0 0 0 0 0 0 0 0 0 0 0 0 0
0 0 0 0 0 0 0 1 1 0 0 0 0 0 0 0 0 0 0 0 0 1 2 2 1 0 0 0 0 0 0 0 0 0 0 0 0 0 0 0 0 0 0 0
0 0 0 0 0 0 0 0 0 0 0 0 0 0 0 0 0 0 0 0 0 1 2 2 1 0 0 0 0 0 0 0 0 0 0 0 0 0 0 0 0 0 0 0
0 0 0 0 0 0 0 0 0 0 0 0 0 0 0 0 0 0 0 0 0 1 2 2 1 0 0 0 0 0 0 0 0 0 0 0 0 0 0 0 0 0 0 0
0 0 0 0 0 0 0 0 0 0 0 0 0 0 0 0 0 0 0 0 0 0 1 1 0 0 0 0 0 0 0 0 0 0 0 0 0 0 0 0 0 0 0 0
0 0 0 0 0 0 0 0 0 0 0 0 0 0 0 0 0 0 0 0 0 0 0 0 0 0 0 0 0 0 0 0 0 0 0 0 0 0 0 0 0 0 0 0
0 1 1 0 0 0 0 0 0 0 0 0 0 0 0 0 0 0 0 0 0 0 0 0 0 0 0 0 0 0 0 0 0 0 0 0 0 0 0 0 0 0 0 0
1 1 1 0 0 0 0 0 0 0 0 0 0 0 0 0 0 0 0 0 0 0 0 0 0 0 0 0 0 0 0 0 0 0 0 0 0 0 0 0 0 0 0 0
1 1 1 0 0 0 0 0 0 0 0 0 0 0 0 0 0 0 0 0 0 0 0 0 0 0 0 0 0 0 0 0 0 0 0 0 0 0 0 0 0 0 0 0
1 0 0 0 0 0 0 0 0 0 0 0 0 0 0 0 0 0 0 0 0 0 0 0 0 0 0 0 0 0 0 0 0 0 0 0 0 0 0 0 0 0 0 0
0 0 0 0 0 0 0 0 0 0 0 0 0 0 0 0 0 0 0 0 0 0 0 0 0 0 0 0 0 0 0 0 0 0 0 0 0 0 0 0 0 0 0 0

GEFSNGP_con_prob3kmehi_186.txt.gz
EHI
0 0 0 0 0 0 0 0 0 0 1 5 12 20 31 44 55 63 67 68 72 73 69 62 58 54 50 48 47 46 42 36 32 29 25 21 19 20 19 15 12 11 11 12
0 0 0 0 0 0 0 0 0 1 4 9 17 26 39 50 60 66 68 69 73 74 69 63 59 55 49 44 44 43 38 33 28 25 22 19 18 19 18 15 13 12 12 12
0 0 0 0 0 0 0 0 0 3 8 14 23 36 49 58 64 67 68 72 75 74 68 63 58 53 47 42 39 37 34 30 25 21 20 18 18 18 18 16 14 12 11 12
0 0 0 0 0 0 0 1 1 5 12 18 28 41 52 61 66 66 68 73 75 71 65 60 56 50 46 41 35 31 28 26 25 24 22 20 19 20 20 18 14 11 9 9
0 0 0 0 0 0 1 3 5 9 16 24 30 39 50 59 65 68 71 74 74 68 64 60 55 49 45 39 32 27 24 24 25 26 25 22 20 21 21 18 14 9 7 5
0 0 0 0 1 1 2 6 11 17 26 31 33 39 51 60 67 71 73 75 74 69 66 62 55 48 43 35 27 22 21 22 24 25 24 22 21 20 20 17 13 8 4 2
1 0 0 2 5 8 15 23 26 29 36 41 42 49 59 66 69 70 71 74 73 69 65 59 52 46 39 31 23 18 17 19 22 23 21 19 19 19 17 14 9 5 2 1
2 4 7 12 16 24 38 46 43 40 44 51 57 61 65 67 67 66 68 69 67 63 59 53 48 44 39 31 23 18 17 20 22 21 18 17 17 17 15 11 7 3 2 1
9 13 21 26 28 35 46 50 46 42 46 55 61 65 64 60 58 59 62 62 58 55 50 44 42 41 39 33 25 20 21 21 21 18 16 15 14 12 10 8 5 3 2 2
20 23 29 32 33 34 37 40 39 39 44 52 58 58 55 50 49 53 56 54 50 46 41 37 36 35 35 31 25 20 19 19 17 14 12 10 8 6 4 3 2 2 1 1
27 27 28 29 30 29 32 35 38 40 44 51 53 49 45 43 44 47 48 46 41 37 35 34 32 30 28 25 21 18 16 15 13 10 6 4 2 1 0 0 0 0 0 0
28 27 26 26 25 25 29 34 39 43 48 49 45 40 39 38 38 39 39 37 35 31 31 30 27 24 21 19 18 16 14 12 10 6 3 1 0 0 0 0 0 0 0 0
30 29 28 27 24 23 26 31 35 40 44 41 35 34 34 33 31 30 30 29 28 26 24 22 19 16 14 14 15 13 11 9 7 4 1 0 0 0 0 0 0 0 0 0
30 30 31 30 26 23 23 26 30 34 34 30 27 28 29 28 25 23 21 20 19 18 16 14 12 10 10 10 10 9 7 6 5 3 1 0 0 0 0 0 0 0 0 0
26 27 28 26 23 19 20 24 27 28 26 24 22 23 22 21 19 16 14 12 11 11 10 7 7 7 6 6 6 5 4 3 3 2 1 0 0 0 0 0 0 0 0 0
20 21 20 18 15 13 16 20 22 21 19 18 18 19 18 16 14 13 11 8 7 6 5 3 3 4 4 4 4 3 2 1 1 1 0 0 0 0 0 0 0 0 0 0
14 14 13 12 10 9 12 15 15 13 11 13 15 16 16 15 13 10 7 5 4 3 2 1 2 3 3 3 3 2 1 0 0 0 0 0 0 0 0 0 0 0 0 0
8 9 9 9 8 7 8 10 10 9 8 10 13 14 14 13 11 7 3 1 2 2 3 2 1 2 2 2 2 1 0 0 0 0 0 0 0 0 0 0 0 0 0 0
8 8 8 8 7 6 6 6 7 7 7 8 9 10 9 8 6 3 1 0 1 2 3 2 1 1 1 1 1 0 0 0 0 0 0 0 0 0 0 0 0 0 0 0
9 8 7 6 6 5 5 4 4 4 4 5 5 5 4 3 2 1 0 0 0 1 2 2 1 0 0 0 0 0 0 0 0 0 0 0 0 0 0 0 0 0 0 0
6 6 3 3 4 4 3 2 1 1 2 3 3 2 1 0 0 0 0 0 0 0 1 1 0 0 0 0 0 0 0 0 0 0 0 0 0 0 0 0 0 0 0 0
4 4 3 2 4 3 2 0 0 0 1 2 2 1 0 0 0 0 0 0 0 0 0 0 0 0 0 0 0 0 0 0 0 0 0 0 0 0 0 0 0 0 0 0
6 6 5 4 4 3 1 0 0 0 0 1 1 0 0 0 0 0 0 0 0 0 0 0 0 0 0 0 0 0 0 0 0 0 0 0 0 0 0 0 0 0 0 0
5 6 5 4 4 3 1 1 1 1 0 0 1 0 0 0 0 0 0 0 0 0 0 0 0 0 0 0 0 0 0 0 0 0 0 0 0 0 0 0 0 0 0 0
3 3 3 4 4 3 3 2 2 2 1 0 0 0 0 0 0 0 0 0 0 0 0 0 0 0 0 0 0 0 0 0 0 0 0 0 0 0 0 0 0 0 0 0
2 3 4 4 3 3 3 3 2 2 1 0 0 0 0 0 0 0 0 0 0 0 0 0 0 0 0 0 0 0 0 0 0 0 0 0 0 0 0 0 0 0 0 0
3 3 4 4 3 3 3 2 1 1 0 0 0 0 0 0 0 0 0 0 0 0 0 0 0 0 0 0 0 0 0 0 0 0 0 0 0 0 0 0 0 0 0 0

GEFSNGP_con_prob3kmehi_192.txt.gz
EHI
0 0 0 0 0 0 0 0 0 0 1 3 10 24 35 43 51 56 56 55 54 52 45 37 34 29 22 19 17 16 16 16 15 13 10 7 6 6 6 5 3 3 3 3
0 0 0 0 0 0 0 0 0 1 3 7 16 30 40 47 55 60 59 56 53 51 43 37 35 31 25 19 15 12 13 14 13 12 11 9 7 6 5 4 3 3 2 2
0 0 0 0 0 0 1 2 2 5 8 14 25 37 45 52 58 62 61 57 53 48 42 38 34 30 25 18 12 9 9 10 11 12 12 11 10 8 6 4 3 2 1 1
0 0 0 0 0 1 4 6 8 10 16 24 34 43 47 50 56 61 62 57 50 44 40 36 31 27 21 15 11 9 8 8 9 10 12 12 11 9 7 4 2 1 0 0
0 0 0 0 1 2 7 12 16 21 28 34 40 45 44 43 49 56 61 57 48 42 36 31 28 24 19 14 12 11 9 7 8 9 11 11 10 8 5 2 1 0 0 0
0 0 0 1 3 4 8 15 22 30 37 39 40 38 37 37 42 51 58 57 50 42 34 28 26 23 17 13 12 11 9 7 7 8 9 9 8 6 3 1 0 0 0 0
0 0 1 4 6 6 8 15 23 31 36 37 34 31 33 37 43 50 55 54 48 39 31 27 25 21 15 12 10 8 7 6 6 7 7 6 5 4 3 1 0 0 0 0
0 0 1 5 9 10 12 17 25 31 35 37 35 33 36 42 48 52 52 48 41 33 27 25 22 18 13 10 7 7 6 6 6 6 5 4 3 3 2 1 0 0 0 0
1 1 2 6 12 16 20 24 28 31 34 36 36 36 38 42 45 48 46 41 33 28 25 22 19 16 11 7 6 6 6 6 6 6 4 3 3 3 1 0 0 0 0 0
4 5 6 9 16 22 27 29 30 30 32 32 32 34 36 37 38 38 37 33 28 24 21 19 17 13 9 6 6 7 7 7 6 6 4 3 2 2 1 0 0 0 0 0
8 9 10 14 20 25 28 30 30 29 29 28 29 31 32 32 31 31 29 26 24 21 18 17 15 12 9 8 8 8 8 7 6 5 3 1 1 1 0 0 0 0 0 0
7 8 11 15 20 24 27 29 29 28 26 24 26 28 28 26 25 26 25 22 20 19 17 15 13 11 10 10 10 9 7 6 5 3 1 0 0 0 0 0 0 0 0 0
5 7 11 15 18 21 24 26 26 25 24 23 23 23 21 19 19 22 23 21 19 18 15 12 8 6 7 8 7 6 5 4 3 2 1 0 0 0 0 0 0 0 0 0
6 8 11 13 16 20 23 24 24 23 22 20 18 16 14 14 15 18 19 18 17 14 10 5 3 2 2 3 3 3 2 1 1 0 0 0 0 0 0 0 0 0 0 0
5 6 8 10 13 17 21 22 21 20 17 14 11 10 8 8 11 13 13 11 10 9 5 2 0 0 0 0 1 1 0 0 0 0 0 0 0 0 0 0 0 0 0 0
3 5 6 7 9 13 16 17 16 13 9 6 5 4 3 3 4 6 6 5 4 3 2 1 0 0 0 0 0 0 0 0 0 0 0 0 0 0 0 0 0 0 0 0
2 4 5 5 6 8 9 9 8 5 3 1 1 0 0 0 0 2 2 1 1 1 1 1 0 0 0 0 0 0 0 0 0 0 0 0 0 0 0 0 0 0 0 0
1 2 3 3 5 5 4 3 2 2 1 0 0 0 1 0 0 0 0 0 0 0 0 0 0 0 0 0 0 0 0 0 0 0 0 0 0 0 0 0 0 0 0 0
1 1 2 2 3 3 1 1 1 1 1 0 0 0 0 0 0 0 0 0 0 0 0 0 0 0 0 0 0 0 0 0 0 0 0 0 0 0 0 0 0 0 0 0
1 2 2 2 1 1 0 0 1 2 2 1 1 1 0 0 0 0 0 0 0 0 0 0 0 0 0 0 0 0 0 0 0 0 0 0 0 0 0 0 0 0 0 0
3 3 2 1 0 0 0 0 1 2 3 2 2 2 1 0 0 0 0 0 0 0 0 0 0 0 0 0 0 0 0 0 0 0 0 0 0 0 0 0 0 0 0 0
2 2 1 0 0 0 0 1 1 3 3 3 2 2 1 0 0 0 0 0 0 0 0 0 0 0 0 0 0 0 0 0 0 0 0 0 0 0 0 0 0 0 0 0
1 1 0 0 0 0 1 2 2 2 3 2 1 1 0 0 0 0 0 0 0 0 0 0 0 0 0 0 0 0 0 0 0 0 0 0 0 0 0 0 0 0 0 0
0 0 0 0 0 0 1 2 2 1 1 1 1 0 0 0 0 0 0 0 0 0 0 0 0 0 0 0 0 0 0 0 0 0 0 0 0 0 0 0 0 0 0 0
0 0 0 0 0 0 0 1 1 0 0 0 0 0 0 0 0 0 0 0 0 0 0 0 0 0 0 0 0 0 0 0 0 0 0 0 0 0 0 0 0 0 0 0
0 0 0 0 0 0 0 0 0 0 0 0 0 0 0 0 0 0 0 0 0 0 0 0 0 0 0 0 0 0 0 0 0 0 0 0 0 0 0 0 0 0 0 0
0 0 0 0 0 0 0 0 0 0 0 0 0 0 0 0 0 0 0 0 0 0 0 0 0 0 0 0 0 0 0 0 0 0 0 0 0 0 0 0 0 0 0 0

GEFSNGP_con_prob3kmehi_198.txt.gz
EHI
0 0 0 0 0 0 0 0 0 0 0 0 1 4 11 21 30 33 34 33 32 29 26 23 20 17 15 13 12 11 9 6 5 4 4 5 8 9 8 6 3 2 1 1
0 0 0 0 0 0 0 0 0 0 0 1 2 5 12 23 33 37 37 37 35 31 27 24 20 17 14 11 10 10 8 6 5 4 4 5 7 7 6 4 3 1 1 1
0 0 0 0 0 0 1 1 1 1 1 2 4 8 15 25 36 40 40 40 36 32 28 24 18 13 11 8 8 9 8 7 6 5 4 4 4 5 4 3 2 1 0 1
0 0 0 0 0 0 1 2 2 3 4 5 8 13 18 25 34 40 41 39 35 30 27 22 15 10 9 7 8 9 9 7 6 5 3 2 2 2 3 3 1 1 0 0
0 0 0 0 0 0 1 3 4 5 7 9 13 16 17 22 29 35 38 37 33 29 26 21 14 10 9 8 8 10 9 8 6 5 3 1 1 2 3 3 2 1 1 0
0 0 0 0 0 0 1 2 5 7 10 13 15 16 16 21 27 30 34 35 30 27 25 21 15 10 8 8 8 8 8 7 6 5 4 3 2 2 3 3 3 2 1 0
0 0 0 0 1 1 1 2 5 9 12 14 15 15 17 23 27 28 30 31 26 23 22 20 15 11 8 7 5 4 4 4 4 4 3 3 3 3 3 3 3 2 1 0
0 0 0 1 2 2 1 3 6 10 13 16 19 20 20 22 24 24 24 24 20 17 16 15 13 11 9 5 2 1 1 1 3 3 3 3 3 3 3 3 3 1 0 0
1 1 1 2 4 3 3 4 7 11 16 21 26 25 22 19 19 17 16 17 15 13 11 9 9 9 8 4 2 1 0 1 2 2 2 3 3 3 3 3 2 1 0 0
3 4 4 5 7 7 6 6 9 14 20 25 27 26 22 18 15 12 11 12 13 11 8 5 4 4 4 3 2 1 0 0 1 1 2 2 2 2 2 2 1 0 0 0
3 4 6 6 7 9 9 9 12 17 22 23 23 23 21 18 13 10 9 10 11 11 8 4 2 1 1 1 2 2 1 1 1 2 2 1 1 1 1 1 0 0 0 0
1 3 4 4 4 8 10 11 13 17 20 19 16 17 17 16 12 9 8 9 10 9 9 6 3 1 0 0 1 2 2 2 2 2 1 1 0 0 0 0 0 0 0 0
1 2 2 2 4 7 10 12 12 13 15 13 11 11 12 12 10 8 7 7 7 6 7 7 4 2 1 0 0 1 2 2 2 1 0 0 0 0 0 0 0 0 0 0
2 2 2 3 5 7 9 11 11 10 10 9 9 9 10 10 8 7 6 5 4 4 4 4 3 2 1 0 0 0 1 1 1 0 0 0 0 0 0 0 0 0 0 0
2 1 1 1 3 5 6 9 10 9 9 8 7 7 7 7 7 5 4 4 3 3 2 2 2 1 0 0 0 0 0 0 0 0 0 0 0 0 0 0 0 0 0 0
1 0 0 0 2 3 4 6 9 8 7 6 4 4 4 4 4 2 2 2 2 1 1 0 0 0 0 0 0 0 0 0 0 0 0 0 0 0 0 0 0 0 0 0
0 0 0 0 1 2 3 4 5 5 5 3 2 1 1 1 1 1 0 1 1 0 0 0 0 0 0 0 0 0 0 0 0 0 0 0 0 0 0 0 0 0 0 0
0 0 0 0 1 2 2 1 1 1 1 1 0 1 1 0 0 0 0 0 0 0 0 0 0 0 0 0 0 0 0 0 0 0 0 0 0 0 0 0 0 0 0 0
0 0 0 0 1 2 1 0 0 0 0 0 1 2 1 0 0 0 0 0 0 0 0 0 0 0 0 0 0 0 0 0 0 0 0 0 0 0 0 0 0 0 0 0
0 0 0 0 0 1 0 0 0 0 0 0 1 2 1 0 0 0 0 0 0 0 0 0 0 0 0 0 0 0 0 0 0 0 0 0 0 0 0 0 0 0 0 0
0 0 0 0 0 0 0 0 0 0 0 0 1 1 0 0 0 0 0 0 0 0 0 0 0 0 0 0 0 0 0 0 0 0 0 0 0 0 0 0 0 0 0 0
0 0 0 0 0 0 0 0 0 0 0 0 0 0 0 0 0 0 0 0 0 0 0 0 0 0 0 0 0 0 0 0 0 0 0 0 0 0 0 0 0 0 0 0
0 0 0 0 0 0 0 0 0 0 0 0 0 0 0 0 0 0 0 0 0 0 0 0 0 0 0 0 0 0 0 0 0 0 0 0 0 0 0 0 0 0 0 0
0 0 0 0 0 0 0 0 0 0 0 0 0 1 1 0 0 0 0 0 0 0 0 0 0 0 0 0 0 0 0 0 0 0 0 0 0 0 0 0 0 0 0 0
0 0 0 0 0 0 0 0 0 0 0 0 1 2 2 1 0 0 0 0 0 0 0 0 0 0 0 0 0 0 0 0 0 0 0 0 0 0 0 0 0 0 0 0
0 0 0 0 0 0 0 0 0 0 0 1 2 3 2 1 0 0 0 0 0 0 0 0 0 0 0 0 0 0 0 0 0 0 0 0 0 0 0 0 0 0 0 0
0 0 0 0 0 0 0 0 0 0 0 1 2 3 1 0 0 0 0 0 0 0 0 0 0 0 0 0 0 0 0 0 0 0 0 0 0 0 0 0 0 0 0 0

GEFSNGP_con_prob3kmehi_204.txt.gz
EHI
0 0 0 0 0 0 0 0 0 1 2 4 7 13 21 29 33 36 39 42 44 45 46 44 38 34 29 25 24 23 23 21 17 13 11 11 9 9 10 11 9 10 11 11
0 0 0 0 0 0 0 0 0 0 1 4 8 14 21 29 36 39 41 42 43 43 44 45 42 37 30 25 23 23 23 21 17 12 10 9 9 9 10 10 11 12 12 12
0 0 0 0 0 0 0 0 0 0 1 4 9 15 22 30 38 43 45 46 43 39 40 45 45 39 31 25 23 23 22 19 15 12 10 9 8 9 10 11 12 14 14 13
0 0 0 0 0 0 0 0 1 1 1 4 9 16 24 31 37 43 50 52 46 39 38 42 43 37 30 25 23 22 20 16 13 12 11 10 9 10 12 12 13 14 13 12
0 0 0 0 0 0 0 1 2 2 3 5 8 15 25 33 36 42 52 58 54 47 43 42 40 35 30 26 23 21 19 15 13 12 12 11 10 12 13 12 11 11 10 9
0 0 0 1 1 0 0 1 3 6 8 8 9 16 28 37 39 43 54 64 63 58 53 46 40 36 33 28 23 20 16 13 12 11 11 11 11 12 11 9 8 8 7 5
0 0 1 2 2 2 4 7 9 10 12 14 17 25 34 40 42 46 56 66 69 65 57 48 42 39 34 27 21 17 13 10 9 9 9 9 9 9 7 6 6 6 5 4
0 1 3 5 7 10 15 20 20 17 17 21 27 35 39 41 43 48 57 64 66 63 54 45 41 40 35 28 21 16 11 7 6 7 7 7 7 6 5 5 6 6 4 4
4 6 8 12 16 21 27 31 29 26 27 30 34 38 40 42 46 50 56 59 59 54 46 39 36 36 36 30 23 17 12 8 7 6 5 5 6 6 6 6 6 5 5 4
13 16 18 20 24 28 32 33 31 30 33 34 35 37 39 42 46 51 54 55 52 46 39 34 31 31 32 28 22 18 14 10 7 4 4 5 6 6 6 6 5 4 4 4
22 24 26 26 28 30 31 31 30 29 29 31 33 36 38 39 43 45 46 48 45 38 33 32 29 26 24 22 19 17 14 10 5 4 5 6 6 6 5 4 3 2 2 2
24 26 27 28 29 29 28 29 28 27 26 27 30 32 34 35 35 36 37 38 37 31 28 29 26 21 19 17 15 13 11 8 4 3 5 6 6 5 3 1 1 1 1 1
25 25 27 27 28 27 25 23 24 25 25 25 25 25 26 28 28 28 29 29 29 28 26 24 20 17 16 14 12 10 8 5 4 3 4 4 4 3 1 0 0 0 0 0
24 25 25 26 26 24 20 16 18 21 22 22 21 20 20 21 22 22 22 21 23 25 24 20 15 13 13 12 10 8 5 4 3 3 3 3 3 3 1 0 0 0 0 0
18 18 20 21 21 18 14 11 12 16 18 19 20 19 18 18 19 19 17 16 17 19 19 17 13 11 11 10 8 5 4 4 3 3 3 3 3 3 2 1 0 0 0 0
9 11 12 12 12 11 9 8 9 11 14 16 17 17 15 16 17 16 14 15 16 16 15 14 13 11 10 8 5 4 3 3 2 2 1 1 2 2 2 1 0 0 0 0
5 7 8 7 6 6 6 5 6 7 9 11 12 11 11 12 13 13 14 15 16 15 14 13 11 9 8 6 4 2 1 1 1 1 1 0 1 1 1 1 0 0 0 0
4 5 5 4 4 5 4 2 2 3 4 6 7 7 7 9 11 14 16 15 14 13 12 11 8 6 5 5 3 1 0 0 0 0 0 0 0 0 0 0 0 0 0 0
5 4 3 2 3 4 3 1 1 1 1 2 4 5 5 6 9 13 14 12 11 11 9 6 4 3 4 3 2 0 0 0 0 0 0 0 0 0 0 0 0 0 0 0
4 3 2 2 2 3 2 2 1 0 0 0 1 2 2 4 7 10 10 8 7 6 4 2 1 2 2 2 1 0 0 0 0 0 0 0 0 0 0 0 0 0 0 0
3 2 1 1 1 1 1 1 1 0 0 0 0 0 0 2 4 6 5 3 3 3 1 0 0 1 1 1 0 0 0 0 0 0 0 0 0 0 0 0 0 0 0 0
2 1 0 0 0 0 0 0 0 0 0 0 0 1 1 2 3 3 2 1 1 1 0 0 0 0 0 0 0 0 0 0 0 0 0 0 0 0 0 0 0 0 0 0
1 0 0 0 0 0 0 0 0 0 0 0 0 1 2 3 2 1 0 0 0 0 0 0 0 0 0 0 0 0 0 0 0 0 0 0 0 0 0 0 0 0 0 0
0 1 1 0 1 1 1 1 0 0 0 0 0 1 3 3 1 0 0 0 0 0 0 0 0 0 0 0 0 0 0 0 0 0 0 0 0 0 0 0 0 0 0 0
1 2 2 1 1 2 2 1 0 0 0 0 0 1 2 2 1 0 0 0 0 0 0 0 0 0 0 0 0 0 0 0 0 0 0 0 0 0 0 0 0 0 0 0
2 2 2 1 1 1 1 1 0 0 0 0 0 0 1 2 1 0 0 0 0 0 0 0 0 0 0 0 0 0 0 0 0 0 0 0 0 0 0 0 0 0 0 0
3 2 1 0 0 0 0 0 0 0 0 0 0 0 1 2 1 0 0 0 0 0 0 0 0 0 0 0 0 0 0 0 0 0 0 0 0 0 0 0 0 0 0 0

GEFSNGP_con_prob3kmehi_210.txt.gz
EHI
0 0 0 0 0 0 0 0 0 1 5 9 15 25 35 41 48 54 57 61 68 71 71 72 68 62 57 53 48 42 37 32 29 26 22 19 17 14 13 11 11 10 9 8
0 0 0 0 0 0 0 0 0 2 6 12 16 25 35 43 49 56 60 63 67 71 73 73 68 62 57 52 46 40 35 31 27 23 18 16 15 14 14 14 13 11 9 8
0 0 0 0 0 0 1 1 1 3 9 15 19 25 35 45 53 59 64 67 68 70 73 73 68 63 58 51 43 37 33 29 25 20 17 14 13 14 16 16 15 12 9 6
0 0 0 1 1 1 2 3 3 5 10 16 21 24 32 44 56 66 71 72 70 68 69 70 68 64 58 49 41 36 31 28 24 21 18 15 14 15 16 16 13 9 6 4
0 0 0 1 2 2 3 4 5 7 12 17 19 21 28 41 57 69 75 75 71 67 67 69 69 65 58 49 41 35 31 27 24 21 19 16 14 15 15 14 10 6 3 3
0 0 1 2 3 3 3 5 7 10 15 19 21 26 36 47 56 67 74 74 70 67 67 69 68 65 59 51 40 33 29 26 24 22 20 17 14 14 14 13 10 5 3 3
0 1 2 4 5 7 11 16 15 16 20 28 35 42 51 58 60 66 73 73 71 69 68 67 65 64 60 51 40 32 27 25 23 22 20 17 15 14 13 12 9 5 4 4
1 2 6 11 15 21 30 35 29 25 28 37 48 54 59 63 64 68 72 72 71 70 67 64 63 64 60 51 40 33 29 26 23 21 18 16 14 12 10 9 7 5 5 6
6 7 13 22 28 34 41 43 39 37 38 42 49 56 61 65 67 69 72 71 69 68 65 62 63 64 59 48 38 32 30 26 21 17 14 12 10 8 7 7 6 5 5 6
16 16 20 28 33 36 38 40 42 44 44 45 50 57 65 70 71 72 73 72 70 67 64 63 63 62 55 45 36 31 29 25 18 12 9 8 6 5 4 4 4 4 4 5
24 27 29 32 35 35 36 39 42 45 47 50 54 61 69 73 73 74 75 73 71 70 67 64 62 57 49 41 35 30 28 23 15 8 5 5 4 3 2 2 2 2 3 3
28 33 35 36 36 35 36 39 43 45 48 50 54 62 68 71 71 70 70 71 71 70 68 64 58 50 41 35 32 28 25 21 14 6 3 3 3 2 1 1 1 1 1 1
29 31 33 33 32 29 30 35 40 42 43 44 49 56 63 66 64 61 61 64 65 65 64 60 51 40 32 28 27 25 22 19 12 5 2 3 3 2 1 0 0 0 0 0
28 29 30 30 29 27 27 31 35 36 34 36 42 49 56 60 58 54 53 55 56 56 56 51 41 32 26 23 22 21 19 15 10 6 2 3 3 3 2 1 0 0 0 0
28 28 29 29 28 26 25 27 30 31 31 32 37 44 48 52 53 49 47 47 47 47 45 40 33 26 21 18 18 18 15 12 9 7 4 3 3 3 3 2 1 0 0 0
26 25 25 26 27 24 22 23 25 28 29 30 32 36 39 42 44 42 40 40 39 38 37 33 28 23 17 13 14 14 13 10 8 7 6 4 4 4 4 3 1 0 0 0
20 19 19 21 21 20 19 19 22 24 25 24 25 26 28 30 32 33 33 33 33 33 32 30 26 21 15 10 10 11 11 9 7 7 6 6 5 3 3 2 1 0 0 0
15 14 13 15 15 15 15 16 18 19 20 19 18 19 20 20 23 26 27 28 30 30 28 26 24 19 13 9 8 8 8 7 7 7 6 5 4 3 1 1 0 0 0 0
13 12 12 13 13 13 13 13 14 15 17 17 16 16 16 16 18 21 22 24 26 27 27 23 19 15 11 8 6 5 5 5 5 6 4 2 1 2 1 0 0 0 0 0
13 13 13 14 13 12 12 11 10 11 13 15 15 15 16 17 16 16 18 19 20 22 21 17 13 11 9 6 4 3 3 3 3 3 2 0 0 1 1 0 0 0 0 0
11 11 11 11 11 10 10 9 8 8 10 11 11 13 16 17 15 14 15 16 15 15 13 10 9 8 6 3 2 2 2 1 1 1 1 0 0 0 0 0 0 0 0 0
6 6 6 6 6 6 7 7 6 6 6 6 7 11 15 16 14 12 14 14 10 8 7 7 5 4 2 1 0 1 1 0 0 0 0 0 0 0 0 0 0 0 0 0
4 4 3 2 2 4 5 5 5 5 4 4 6 11 14 14 11 10 10 9 5 3 5 5 3 1 0 0 0 0 0 0 0 0 0 0 0 0 0 0 0 0 0 0
3 3 2 1 1 2 4 4 4 5 4 5 7 11 12 10 9 8 6 3 1 1 2 2 1 0 0 0 0 0 0 0 0 0 0 0 0 0 0 0 0 0 0 0
3 3 2 1 0 1 2 3 4 4 3 4 7 9 9 8 8 7 4 1 0 0 0 0 0 0 0 0 0 0 0 0 0 0 0 0 0 0 0 0 0 0 0 0
4 3 2 2 1 0 1 1 2 2 1 2 4 6 6 6 6 5 2 0 0 0 0 0 0 0 0 0 0 0 0 0 0 0 0 0 0 0 0 0 0 0 0 0
5 4 3 2 1 0 0 0 1 1 0 1 3 4 5 6 4 2 1 0 0 0 0 0 0 0 0 0 0 0 0 0 0 0 0 0 0 0 0 0 0 0 0 0

GEFSNGP_con_prob3kmehi_216.txt.gz
EHI
0 0 0 0 0 0 0 0 1 3 6 9 15 23 33 40 46 46 42 42 45 43 38 36 36 35 33 29 25 23 23 21 17 14 11 10 9 8 7 6 6 6 6 6
0 0 0 0 0 0 1 1 2 3 6 10 18 27 34 40 44 45 43 44 46 44 39 35 34 33 32 29 26 23 23 21 18 15 12 10 9 8 7 6 6 6 6 6
0 0 0 0 1 1 3 4 4 5 7 13 23 30 34 38 42 44 47 49 48 46 42 36 32 32 31 29 26 24 23 21 18 16 14 11 9 8 7 5 4 4 4 4
0 0 0 1 2 3 5 7 9 10 13 19 26 30 33 36 40 46 53 53 50 49 46 40 33 31 30 28 26 24 22 20 18 17 15 12 9 7 6 4 3 3 3 3
0 0 0 2 3 4 6 9 12 16 19 24 29 30 31 35 42 51 56 55 52 51 51 45 36 31 29 27 26 23 20 17 17 17 15 11 7 5 4 3 3 3 3 3
0 0 0 1 3 5 6 8 11 17 23 27 28 26 27 36 46 53 57 56 55 55 54 47 37 30 29 28 25 21 18 17 17 17 14 9 4 2 3 3 3 3 3 3
0 0 0 1 3 4 5 6 9 17 26 29 26 24 29 39 49 54 58 60 59 57 53 44 34 28 26 24 21 17 15 17 17 15 12 7 3 1 3 3 3 3 3 3
0 0 1 2 4 4 4 7 13 23 33 36 35 36 40 47 53 57 60 62 58 54 50 42 31 25 21 18 14 11 11 13 13 11 9 6 3 2 3 3 3 3 3 3
1 2 3 4 5 5 7 13 22 32 41 44 48 52 53 54 59 61 62 60 53 49 48 41 30 22 17 13 11 9 8 8 7 5 4 2 1 1 2 2 3 3 3 3
6 7 9 9 10 11 14 21 31 41 46 49 54 58 57 56 58 60 60 56 51 48 45 38 28 20 14 10 8 7 7 6 3 1 1 0 0 0 1 1 1 2 2 1
10 12 13 15 17 19 24 31 40 47 49 51 55 56 53 50 50 52 52 50 47 44 40 33 26 18 12 7 6 6 5 4 2 0 0 0 0 0 0 0 0 1 1 0
11 12 13 16 20 24 30 37 45 48 48 48 49 49 46 43 42 43 43 41 39 37 34 28 22 15 10 7 7 6 4 2 1 0 0 0 0 0 0 0 0 0 0 0
12 12 12 14 19 25 31 37 42 45 44 43 43 41 40 39 38 40 40 36 32 31 30 24 17 11 9 8 9 8 5 3 2 1 0 0 0 0 0 0 0 0 0 0
12 12 12 14 19 24 29 34 38 40 40 40 38 38 39 37 37 38 38 34 30 29 27 20 12 8 7 8 9 9 6 4 3 2 1 0 0 0 0 0 0 0 0 0
9 9 11 15 19 22 25 30 34 35 36 36 36 35 36 35 34 34 32 30 29 27 22 15 10 6 5 7 7 7 6 5 4 4 3 1 0 0 0 0 0 0 0 0
6 7 9 13 17 19 22 24 27 27 27 29 29 28 29 29 29 27 25 24 23 21 15 10 7 5 5 5 4 3 4 5 5 5 4 3 2 1 1 1 0 0 0 0
7 6 7 10 13 16 19 19 18 17 17 18 19 19 20 22 23 21 18 17 16 14 11 8 6 5 4 4 2 1 2 3 3 4 4 4 4 3 3 2 1 1 1 0
6 5 5 7 10 12 13 13 10 8 8 9 11 12 13 14 14 14 14 13 13 12 10 8 7 6 5 3 1 0 1 2 3 3 3 4 4 4 3 3 2 2 2 1
6 5 4 5 6 7 6 5 4 3 3 5 6 7 8 9 9 10 11 10 11 11 10 9 8 8 5 2 0 0 1 2 3 3 3 3 3 4 3 2 2 2 2 1
5 5 4 4 3 3 1 1 0 1 2 3 3 3 4 7 8 9 9 7 6 7 9 10 9 8 5 2 0 0 0 2 3 3 3 3 3 3 3 1 1 1 1 0
4 4 3 2 1 1 0 0 0 0 1 1 1 1 2 4 6 6 6 5 3 3 5 7 6 6 4 1 0 0 0 1 2 2 3 3 3 3 3 2 0 0 0 0
2 2 1 1 0 0 0 0 0 0 0 0 1 0 1 2 2 2 3 3 1 1 2 4 4 3 2 1 0 0 0 0 1 1 1 2 2 2 2 1 0 0 0 0
1 1 0 0 0 0 0 0 0 0 0 0 0 0 0 1 1 1 1 1 0 0 1 2 2 1 1 0 0 0 0 0 0 0 0 1 1 1 1 0 0 0 0 0
0 0 0 0 0 0 0 0 0 0 0 0 0 0 1 1 2 1 0 0 0 0 0 1 1 0 0 0 0 0 0 0 0 0 0 0 0 0 0 0 0 0 0 0
0 0 0 0 0 0 0 0 1 0 0 0 0 0 1 2 3 2 1 0 0 0 0 0 0 0 0 0 0 0 0 0 0 0 0 0 0 0 0 0 0 0 0 0
0 0 0 0 0 0 0 0 0 0 0 0 0 0 2 3 3 2 1 0 0 0 0 0 0 0 0 0 0 0 0 0 0 0 0 0 0 0 0 0 0 0 0 0
0 0 0 0 0 0 0 0 0 0 0 0 0 1 2 3 3 2 1 0 0 0 0 0 0 0 0 0 0 0 0 0 0 0 0 0 0 0 0 0 0 0 0 0